STARLINK-35789, 67113

Orbit data source: Space-Track

STARLINK-35789, 67113 is a payload satellite owned by SpaceX/Seattle (US) in LEO that was launched on Mon, 15 Dec 2025 UTC via an FALCON 9 launch vehicle from the Air Force Eastern Test Range (AFETR). Payload-class satellites include a variety of spacecraft equipped with specific instruments for various scientific and technological missions. These include communications satellites like Starlink; space stations such as the ISS; scientific satellites like the Hubble; Earth observation satellites from companies like Planet Labs, Umbra, and HawkEye 360; GPS; miniature CubeSats for education and research; and military/defense satellites.

Loading next visibility...
Identifier
67113, 2025-299M
Orbit
LEO
Country
Flag of USUS
Related business
Manufacturer
SpaceX/Seattle
Mission
Operational Commercial Communications
Bus & Motor
STARLINK V2MO, Unknown motor
Mass
575 kg wet, ~530 kg dry
Launch date (UTC)
2025-12-15 (6 months ago)
Launch vehicle
FALCON 9
Launch site
Air Force Eastern Test Range (AFETR)
Object type
Payload
Rocket body
Debris
Shape & HBR
Box + 2 Pan, 17.7 m
Radar Cross Section
36.964 m², Large (>1 m²)

Expand to show TLE details & history
Last TLE update: 11 hours ago

TLE from 11 hours ago
0 STARLINK-35789
1 67113U 25299M   26171.40812483  .00013540  00000-0  50057-3 0  9995
2 67113  43.0023 309.0714 0003242 290.1328  69.9175 15.27583934 28826
Epoch: 2026-06-20T09:47Z
TLE epoch observation values (Epoch: 2026-06-20T09:47:41.985Z)
Latitude
0.00001°
Longitude
-106.47671°
Altitude
482.05 km
Speed
7.627 km/s
True Right ascension
20h 36m 17s
True Declination
0° 00' 00"
Sunlit
Object was in full shadow at epoch
Visualization orbit readout
Latitude
Unknown
Longitude
Unknown
Altitude
Unknown
Speed
Unknown
Apparent Right ascension
Unknown
Apparent Declination
Unknown
Sunlit
N/A
Visualization observer readout
Local Sidereal Time
07:20:44
Azimuth
Unknown
Elevation
Unknown
Doppler factor
Unknown
Orbital elements
Apogee altitude
487.207 km
Perigee altitude
482.757 km
Semi-major axis
6,863.119 km
Eccentricity
0.00032
Inclination
43.0023°
RAAN
309.0714°
Arg. of periapsis
290.1328°
True anomaly
69.9524°
Mean anomaly
69.9175°
Eccentric anomaly
69.93495°
Mean motion
3.81734 °/min
Orbital period
94.31 mins
BSTAR
0.00050057
Loading maneuver chart data...
Computing Atmospheric mass density...
Loading historical data...
Loading historical data...
Loading historical data...
Loading historical data...
Loading historical data...
Loading historical data...
Loading historical data...

Documentation

Showing up to 5 results
|